www.pogodaiklimat.ru

Архив погоды в Ухте (Коми, Россия)

Время
(UTC), дата
03 16.10
06 16.10
09 16.10
12 16.10
15 16.10
18 16.10
21 16.10
00 17.10
03 17.10
06 17.10
09 17.10
12 17.10
15 17.10
18 17.10
21 17.10
00 18.10
03 18.10
06 18.10
09 18.10
12 18.10
15 18.10
18 18.10
21 18.10
00 19.10
03 19.10
06 19.10
09 19.10
12 19.10
15 19.10
18 19.10
21 19.10
00 20.10
03 20.10
06 20.10
09 20.10
12 20.10
15 20.10
18 20.10
21 20.10
00 21.10
03 21.10
06 21.10
09 21.10
12 21.10
15 21.10
18 21.10
21 21.10
00 22.10
03 22.10
06 22.10
09 22.10
12 22.10
15 22.10
18 22.10
21 22.10
00 23.10
Ветер
(напр.,м/с)
Видим. Явления Облачность Т
(С)
Тd
(С)
f
(%)
Тe
(С)
Тes
(С)
Комфортность P
(гПа)
Po
(гПа)
Тmin
(С)
Tmax
(С)
R
(мм)
R24
(мм)
S
(см)
Ю 3 10 км слаб. дождь 10/10 180 м
[Frnb Ns]
+5.3 +5.1 99 +2 +2 тепло 1002.5 985.8 +4.1 2
ЮЗ 3 10 км слаб. дождь 10/10 270 м
[Frnb Ns]
+4.8 +4.1 95 +1 +1 тепло 1002.5 985.8
ЮЗ 2 12 км в посл. час дождь 10/10 180 м
[Frnb]
+3.2 +2.7 97 0 0 по сезону 1004.2 987.4
ЮЗ 3 12 км {дождь} 10/10 180 м
[Frnb]
+4.3 +3.8 97 0 0 по сезону 1005.4 988.6
Ю 4 10 км 8/4 600 м
[Sc Ac trans]
+3.7 +3.0 95 -1 -1 по сезону 1005.4 988.6 +5.3 3
Ю 3 10 км 10/10 270 м
[Frnb]
+4.8 +3.8 93 +1 +1 тепло 1004.7 988.0
Ю 3 10 км 10/10 180 м
[Frnb]
+5.1 +4.2 94 +1 +1 тепло 1003.4 986.7
Ю 4 10 км слаб. дождь 10/10 240 м
[Frnb]
+5.3 +4.6 95 +1 +1 тепло 1001.8 985.1
Ю 4 10 км слаб. дождь 10/10 270 м
[Frnb Ns]
+5.8 +5.3 97 +2 +2 тепло 1000.7 984.1 +3.7 0.9
ЮЗ 3 12 км {дождь} 9/8 450 м
[Sc Ac trans]
+5.6 +3.5 86 +2 +2 тепло 1001.1 984.4
ЮЗ 2 12 км {ливн. дождь} 10/8 360 м
[Cb cap Ac trans Ci fib]
+4.7 +1.9 82 +2 +2 тепло 1001.1 984.4
ЮЗ 3 12 км {ливн. дождь} 8/3 600 м
[Cb calv Ci fib]
+4.2 +1.7 84 +1 +1 по сезону 1001.2 984.4
Ю 3 10 км 8/0
[Ac trans Ci fib]
+1.9 +1.1 94 -3 -3 по сезону 1001.8 984.9 +6.0 2
Ю 3 10 км 10/6 600 м
[Sc Ac trans]
+3.0 +2.2 94 -1 -1 по сезону 1001.3 984.5
Ю 4 10 км 10/10 450 м
[Sc]
+3.1 +1.8 91 -2 -2 по сезону 1000.5 983.7
Ю 2 10 км {ливн. дождь} 10/10 480 м
[Sc]
+2.8 +1.5 91 -0 -0 по сезону 1000.2 983.4
ЮЗ 3 10 км 10/10 500 м
[Sc]
+2.8 -0.2 81 -1 -1 по сезону 1000.2 983.4 +1.9 0.3
Ю 3 12 км в посл. час ливневой дождь 10/10 300 м
[Cb cap]
+2.4 +1.9 96 -2 -2 по сезону 1000.2 983.4
ЮЗ 4 12 км 9/9 400 м
[Cb cap]
+4.4 -0.1 73 0 0 по сезону 1000.2 983.4
ЮЗ 4 12 км {ливн. дождь} 8/6 660 м
[Sc Ac trans]
+3.9 +0.5 78 -0 -0 по сезону 1000.5 983.7
Ю 2 10 км 4/4 600 м
[Sc]
+1.2 -0.2 90 -2 -2 по сезону 1001.9 985.0 +5.0 0.0
10 км 9/0
[Ac trans]
+0.2 -0.9 92 1002.3 985.3
10 км 6/0
[Ac trans Ci fib]
-2.1 -2.4 98 1001.9 984.7
10 км 10/0
[Ac und]
-2.7 -3.1 97 1000.3 983.1
нст 1 5000 м слаб. снег 10/0
[As op]
-1.5 -2.0 96 -4 -4 по сезону 998.2 981.1 -2.8 0.0 <0.5
10 км слаб. снег 10/0
[As op]
-0.5 -0.8 98 997.2 980.2
СЗ 2 12 км {снег} 10/4 300 м
[Sc Ac trans]
+1.8 -1.3 80 -1 -1 по сезону 996.9 980.1
12 км {снег} 10/0
[Ac trans]
+2.2 -0.8 81 997.8 981.0
З 2 10 км слаб. ливневой снег 10/10 300 м
[Cb cap]
+0.5 -0.9 90 -3 -3 по сезону 999.8 982.8 +2.4 0.2
ЮЗ 2 6000 м слаб. ливневой снег 10/10 210 м
[Cb cap]
+0.2 -0.4 96 -4 -4 по сезону 1000.1 983.1
З 2 10 км слаб. ливневой снег 10/10 150 м
[Cb cap]
+0.2 -0.1 98 -4 -4 по сезону 1000.8 983.8
ЮЗ 3 10 км слаб. ливневой снег 10/10 180 м
[Cb cap]
+0.3 -0.3 96 -5 -5 по сезону 1001.7 984.7
З 3 10 км в посл. час ливневой снег 10/10 210 м
[Cb cap]
+0.3 -0.3 96 -5 -5 по сезону 1003.1 986.1 +0.1 3 <0.5
З 3 10 км слаб. ливневой снег 10/10 210 м
[Cb cap]
+0.6 0.0 96 -4 -4 по сезону 1003.7 986.7
З 2 10 км слаб. ливневой снег 9/9 300 м
[Cb cap]
+0.8 -0.9 88 -3 -3 по сезону 1005.0 987.9
З 3 12 км {ливн. снег} 10/8 450 м
[Cb cap Ac trans]
+0.4 -1.0 90 -4 -4 по сезону 1006.4 989.3
З 3 10 км 10/10 240 м
[Cb cap]
-0.2 -0.5 98 -5 -5 по сезону 1007.5 990.3 +1.0 0.4
З 2 10 км 10/10 360 м
[Sc]
-0.6 -1.8 92 -4 -4 по сезону 1008.1 990.9
10 км 10/10 900 м
[Sc]
-1.4 -3.4 86 1008.2 991.0
ЮЗ 2 10 км 10/10 480 м
[Sc]
-2.1 -4.3 85 -6 -6 по сезону 1007.8 990.5
Ю 3 10 км {ливн. снег} 10/10 800 м
[Sc]
-2.5 -4.1 89 -8 -8 по сезону 1005.3 988.0 -2.5 0.1 <0.5
Ю 5 12 км {ливн. снег} 10/8 420 м
[Sc Ac trans]
-1.7 -4.1 84 -8 -8 по сезону 1002.1 984.9
ЮВ 6
{10}
12 км 10/10 900 м
[Sc]
-1.5 -7.1 66 -8 -8 прохладно 997.9 980.8
ЮВ 6
{11}
1100 м слаб. ливневой дождь 10/10 150 м
[Cb cap]
-2.5 -3.8 91 -10 -10 холодно 993.6 976.6
ЮВ 7-10
{11}
1600 м слаб. ливневой дождь 10/10 180 м
[Cb cap]
-2.0 -3.5 89 -10 -10 холодно 989.8 972.8 -1.7 3
ЮВ 5
{11}
2400 м снег {ливн. снег} 10/10 210 м
[Frnb Ns]
-2.0 -4.1 86 -9 -9 прохладно 986.7 969.8
Ю 4 10 км слаб. снег 10/10 240 м
[Frnb Ns]
-1.7 -2.5 94 -8 -8 по сезону 985.9 969.0
Ю 3 10 км {снег} 10/10 210 м
[St]
-1.3 -1.8 96 -6 -6 по сезону 985.7 968.9
ЮЗ 2 10 км 10/10 120 м
[St]
-1.0 -2.0 93 -5 -5 по сезону 985.7 968.9 -2.0 3 4
Ю 4 12 км 10/10 120 м
[St]
+0.1 -0.2 98 -6 -6 по сезону 985.0 968.3
ЮВ 4 4500 м слаб. дождь {морось} 10/10 90 м
[Frnb Ns]
+0.9 +0.9 100 -5 -5 по сезону 982.6 966.1
ЮВ 3 600 м туман {дождь, морось} ?/? +1.6 +1.6 100 -3 -3 по сезону 980.5 964.0
ЮВ 4 6000 м слаб. дождь {туман} 10/10 120 м
[Frnb Ns]
+2.9 +2.9 100 -2 -2 по сезону 978.1 961.8 +2.9 3
ЮЗ 4 10 км в посл. час снег {дождь, туман} 10/10 180 м
[Frnb]
+5.5 +5.5 100 +1 +1 тепло 977.3 961.1
З 4
{10}
10 км в посл. час ливневой дождь 10/10 300 м
[Cb cap]
+5.9 +4.7 92 +2 +2 тепло 979.2 962.9
З 4
{10}
10 км {ливн. дождь} 10/10 420 м
[Sc]
+4.2 +3.0 92 -0 -0 тепло 981.5 965.1
Местоположение метеостанции Ухта (Коми, Россия): широта 63.55 долгота 53.82 высота над уровнем моря 137 м.
В архиве по умолчанию представлена погода в Ухте за последнюю неделю. Архивные данные за месяц целиком и за предыдущие месяцы, начиная с января 2011 года, Вы можете получить, выбрав интересующий диапазон дат из раскрывающегося списка и нажав кнопку "Найти!".
*Определитесь, кто Вы:
Внимание! Время в таблицах - всемирное. Для получения местного времени необходимо прибавить поправку, которая равна 3 ч.
Смотрите также архив погоды в соседних городах и на ближайших метеорологических станциях:
Партнеры нашего сайта:
Life is good отзывы о компании
life is good отзывы
2gis.ru

Фейерверки Тула короленко
Фейерверки в Туле. Доставка
bb-salut.ru

Ферингер классика экран пиф профи
Дровяные печи для бани и сауны Ферингер. Консультация и монтаж под ключ
feringermsk.ru

     
Пояснения к столбцам:
  • Ветер - указаны скорость ветра в м/с - средняя за 10 мин, порывы в срок и между сроками (в фигурных скобках) и направление, откуда дует ветер: С - северный,
  • СВ - северо-восточный, В - восточный, ЮВ - юго-восточный, Ю - южный, ЮЗ - юго-западный, З - западный, СЗ - северо-западный.
  • Видимость - горизонтальная дальность видимости в метрах или километрах. При видимости от 1 до 10 км при отсутствии осадков обычно наблюдается дымка, при ухудшении видимости до 1 км и менее - туман. В сухую погоду видимость может ухудшаться дымом, пылью или мглою.
  • Явления - указаны атмосферные явления, наблюдавшиеся в срок или в последний час перед сроком; фигурными скобками обозначены явления, наблюдавшиеся между сроками (за 1-3 часа до срока); квадратными скобками обозначены град или гололедные отложения с указанием их диаметра в мм.
  • Облачность - указаны через наклонную черту общая и нижняя облачность в баллах и высота нижней границы облаков в метрах; квадратными скобками обозначены формы облаков: Ci - перистые, Cs - перисто-слоистые, Cc - перисто-кучевые, Ac - высококучевые, As - высокослоистые, Sc - слоисто-кучевые, Ns - слоисто-дождевые, Cu - кучевые, Cb - кучево-дождевые. Подробнее классификацию облаков см. в Атласе облаков (PDF).
  • T - Температура воздуха - температура, измеренная на высоте 2 м над землей.
  • Td - Температура точки росы - температура, при понижении до которой содержащийся в воздухе водяной пар достигнет насыщения.
  • f - Относительная влажность воздуха - влажноcть воздуха, измеренная на высоте 2 м над землей.
  • Te - Эффективная температура - температура, которую ощущает одетый по сезону человек в тени. Характеристика душности погоды. При расчете учитывается влияние влажности воздуха и скорости ветра на теплоощущения человека.
  • Tes - Эффективная температура на солнце - температура, которую ощущает человек, с поправкой на солнечный нагрев. Характеристика знойности погоды. Зависит от высоты солнца над горизонтом, облачности и скорости ветра. Ночью, в пасмурную погоду, а также при ветре 12 м/с и более поправка равна нулю.
  • P - Атмосферное давление - приведенное к уровню моря атмосферное давление.
  • Po - Атмосферное давление - измеренное на уровне метеостанции атмосферное давление.
  • Tmin - Минимальная температура - минимум температуры воздуха на высоте 2 м над землей.
  • Tmax - Максимальная температура - максимум температуры воздуха на высоте 2 м над землей.
  • R - Количество осадков - Количество выпавших осадков за период времени, мм. При наведении курсора мыши на число - период времени, за который выпало указанное количество осадков.
  • R24 - Количество осадков - Количество выпавших осадков за 24 часа, мм.
  • S - Снежный покров - Высота снежного покрова, см. При наведении курсора мыши на число - состояние снежного покрова и степень покрытия местности в баллах.